User: anonymous   Login
Location: Caltech
(34.1382°N, 118.1253°W)
Time: 13:37:23
(UTC-08:00)
Language:

ERBS - Orbit

View from above orbital plane
View from above orbital plane
View from above satellite
View from above satellite

Ground track
Ground track

The orbit data is extracted from the following two-line orbital elements,

1 15354U 84108B   17345.82909467  .00002726  00000-0  65413-4 0  9994
2 15354  57.0078  92.8752 0016407  86.8556 273.4377 15.44971679825647
Epoch (UTC): 11 December 2017 19:53:53
Eccentricity: 0.0016407
inclination: 57.0078°
perigee height: 420 km
apogee height: 442 km
right ascension of ascending node: 92.8752°
argument of perigee: 86.8556°
revolutions per day: 15.44971679
mean anomaly at epoch: 273.4377°
orbit number at epoch: 82564

The dashed part of the orbit path shows where the satellite is in the earth's shadow,  

DLR